CEST,Max TemperatureF,Mean TemperatureF,Min TemperatureF,Max Dew PointF,MeanDew PointF,Min DewpointF,Max Humidity, Mean Humidity, Min Humidity, Max Sea Level PressureIn, Mean Sea Level PressureIn, Min Sea Level PressureIn, Max VisibilityMiles, Mean VisibilityMiles, Min VisibilityMiles, Max Wind SpeedMPH, Mean Wind SpeedMPH, Max Gust SpeedMPH,PrecipitationIn, CloudCover, Events, WindDirDegrees
2013-3-1,35,34,32,30,28,27,93,83,66,30.23,30.14,30.09,12,6,6,12,7,,0.00,7,,288
2013-3-2,40,32,23,27,24,21,93,74,47,30.30,30.17,30.09,12,7,6,12,6,,0.00,5,,241
2013-3-3,37,30,24,29,25,21,86,78,65,30.21,30.11,30.06,19,7,6,13,9,,0.00,6,,262
2013-3-4,42,32,23,27,24,21,93,71,43,30.30,30.20,30.15,12,7,6,9,6,,0.00,3,,157
2013-3-5,49,36,24,30,26,21,86,71,42,30.15,29.99,29.86,12,12,12,15,7,,0.00,,,107
2013-3-6,50,38,25,34,29,23,93,73,43,29.92,29.74,29.62,12,6,4,9,5,,0.00,,,55
2013-3-7,47,39,31,43,38,30,100,88,74,29.69,29.60,29.56,7,4,0,7,4,,0.00,5,Fog-Rain,10
2013-3-8,45,42,37,43,41,37,100,97,87,29.66,29.62,29.59,4,1,0,9,4,,0.00,8,Fog-Rain,26
2013-3-9,39,37,35,39,38,36,100,99,93,29.69,29.61,29.56,2,0,0,7,3,,0.08,8,Fog-Rain,26
2013-3-10,54,46,37,46,40,37,100,90,54,29.60,29.47,29.42,12,3,0,14,4,,0.00,5,Fog-Rain,211
2013-3-11,27,26,24,41,26,21,100,89,78,29.73,29.57,29.42,16,6,2,13,10,,0.00,8,Rain-Snow,348
2013-3-12,27,25,23,23,22,19,100,90,78,29.73,29.55,29.47,7,4,1,12,8,,0.00,8,Snow,14
2013-3-13,26,24,21,21,19,16,100,87,65,29.74,29.54,29.47,6,4,1,12,9,,0.00,8,Snow,342
2013-3-14,28,20,13,18,15,10,93,76,52,29.85,29.73,29.68,16,7,4,14,8,,0.00,3,Snow,310
2013-3-15,30,23,16,23,17,12,86,78,59,30.07,29.89,29.77,9,6,1,16,9,,0.00,3,Snow,314
2013-3-16,36,25,14,19,14,10,86,65,28,30.19,30.04,29.98,16,7,5,10,6,,0.00,1,,179
2013-3-17,40,30,19,21,18,14,80,62,33,30.07,29.82,29.65,16,14,12,22,12,,0.00,,,116
2013-3-18,39,32,26,32,26,21,100,82,48,29.71,29.42,29.21,16,4,1,15,10,,0.01,7,Rain-Snow,98
2013-3-19,38,34,29,32,30,28,100,89,69,29.56,29.38,29.21,16,5,1,20,9,,0.00,6,Rain-Snow,255
2013-3-20,48,40,31,37,32,28,93,79,52,29.74,29.65,29.56,16,7,6,16,11,,0.03,2,Rain,218
2013-3-21,37,32,26,36,28,22,100,80,52,30.11,29.91,29.77,19,7,6,20,11,,0.00,6,Rain-Snow,280
2013-3-22,30,28,25,25,22,19,93,78,57,30.15,30.06,30.04,12,6,3,15,9,,0.00,7,Snow,347
2013-3-23,30,22,15,21,13,5,80,64,36,30.22,30.10,30.06,19,7,4,22,14,29,0.00,6,Snow,81
2013-3-24,33,23,13,14,7,2,74,54,18,30.27,30.09,30.01,19,19,19,23,17,,0.00,,,82
2013-3-25,31,26,20,16,12,10,68,59,31,30.12,29.95,29.89,16,7,6,24,19,,0.00,4,Snow,78
2013-3-26,32,26,21,14,10,4,74,50,18,29.96,29.84,29.80,19,9,6,23,14,29,0.00,6,Snow,51
2013-3-27,27,25,23,25,20,11,93,81,40,29.95,29.85,29.83,19,4,1,16,10,,0.00,7,Snow,69
2013-3-28,37,31,25,27,25,23,93,80,58,29.94,29.82,29.74,6,5,2,15,7,,0.00,7,Snow,106
2013-3-29,41,35,29,32,27,21,100,78,47,29.78,29.68,29.65,9,4,1,24,10,,0.00,6,Rain-Snow,221
2013-3-30,41,34,28,27,25,23,86,70,39,29.77,29.67,29.62,6,4,2,13,4,,0.00,4,,32
2013-3-31,34,31,28,27,25,23,93,80,55,29.82,29.72,29.68,7,4,2,16,11,,0.00,6,Snow,336
2013-4-1,,,,,,,,,,,,,,,,,,,,,,